Wind_Speed
25 24 24 23 23 18 18 25 28 26 28 23 24 19 18 20 23 26 21 21 20 19 19 20 18 16 15 14 15 15 15 16 16 17 19 19 20 19 16 16 16 18 17 18 17 17 18 16 17
27 27 24 24 22 19 19 27 24 28 23 21 21 20 21 25 24 25 23 21 21 19 17 18 15 14 13 13 15 15 15 15 15 15 16 18 20 19 18 18 18 19 20 19 19 19 18 17 18
28 28 27 25 22 21 23 26 30 21 20 19 19 21 21 28 24 26 25 24 22 20 17 14 12 13 13 13 14 14 13 13 13 15 15 18 20 20 19 19 19 19 19 21 22 23 20 19 20
30 28 30 27 25 25 26 24 22 21 19 19 19 18 21 24 25 25 23 20 19 17 15 12 11 13 14 14 14 15 14 14 14 14 16 17 19 21 21 21 22 21 21 21 22 22 22 21 20
32 30 30 29 27 26 28 26 23 21 20 20 17 19 23 23 26 25 24 23 20 16 13 10 11 13 14 14 16 16 17 16 15 16 15 16 19 21 23 23 24 24 24 23 22 21 21 20 21
36 33 31 30 29 30 28 28 25 23 22 20 19 15 23 24 25 26 22 21 18 17 12 11 12 12 13 14 16 16 17 17 18 17 17 18 18 18 21 23 24 25 25 25 23 22 22 22 23
39 36 33 33 33 31 31 28 28 26 24 24 17 20 25 22 25 25 25 22 17 15 11 11 12 12 12 13 15 16 17 18 19 20 21 21 22 22 22 21 20 21 22 23 23 24 25 26 28
42 40 36 35 32 33 35 30 28 29 29 20 21 25 29 17 23 24 26 23 17 13 12 13 14 13 12 13 15 16 18 19 20 22 23 24 25 25 25 25 24 24 24 25 26 27 29 31 31
44 44 39 35 34 33 37 32 26 27 29 28 23 24 23 21 20 21 24 22 17 16 13 15 16 14 12 12 14 16 18 20 20 22 23 25 26 26 27 27 26 27 27 27 29 30 32 34 35
47 46 39 34 37 37 39 32 28 27 30 29 26 24 22 23 22 20 21 23 19 18 17 17 19 17 14 13 12 14 16 18 19 21 23 23 24 24 25 26 27 28 29 30 32 34 36 37 40
51 48 39 38 39 41 41 31 32 26 28 30 30 24 20 23 24 22 22 21 20 19 19 20 21 19 17 17 17 16 17 18 20 20 21 21 21 21 22 24 26 29 31 33 35 37 39 41 43
49 49 42 41 40 43 39 34 29 29 26 30 27 25 22 27 26 23 22 20 20 20 20 21 22 22 20 20 19 19 18 20 21 21 20 20 21 22 24 26 28 30 32 35 37 40 43 45 45
52 47 43 43 43 43 41 35 29 27 26 32 30 26 26 26 26 22 22 21 21 21 21 22 23 24 25 26 23 21 20 22 25 23 22 22 24 26 28 31 33 35 37 39 41 41 41 39 37
54 46 46 47 47 46 42 35 34 25 38 32 28 26 26 28 26 23 20 21 22 22 23 24 24 25 28 29 28 26 24 26 29 27 26 26 28 30 32 35 35 36 37 38 37 35 35 34 34
57 51 49 50 49 47 42 38 30 30 41 31 28 26 25 25 29 24 21 21 22 23 25 24 25 28 28 28 26 26 26 27 29 29 29 28 31 33 35 37 37 36 35 34 34 33 33 34 35
59 57 53 51 49 46 44 34 35 38 35 30 27 26 24 23 28 27 24 22 22 23 23 23 26 27 28 28 29 29 28 28 29 30 30 31 34 36 37 36 34 34 34 33 34 34 36 37 38
59 60 53 54 51 46 48 35 37 38 33 30 28 25 23 24 28 31 29 24 23 24 25 26 28 27 28 29 31 31 31 29 28 29 32 36 37 37 36 32 32 33 34 35 36 37 37 38 39
58 59 57 54 54 47 44 38 39 38 35 30 29 27 24 25 28 34 31 27 27 27 27 27 28 30 32 36 34 30 28 27 28 31 35 38 37 35 33 32 33 34 36 37 38 38 39 40 40
52 57 57 52 50 48 42 41 39 40 35 29 30 28 27 26 30 33 31 30 28 29 30 31 31 34 36 34 29 29 29 30 32 34 37 36 35 34 34 35 35 36 37 38 39 39 40 42 45
59 49 53 50 52 47 42 43 38 38 35 28 26 27 27 27 31 33 31 30 30 30 31 32 33 35 32 29 29 29 30 33 36 38 38 37 35 34 35 36 37 38 39 40 41 42 45 48 51
59 56 50 51 55 43 44 41 36 32 39 29 29 29 27 27 29 33 32 31 30 31 32 33 34 34 29 27 23 31 34 36 38 38 38 36 36 37 38 39 40 40 41 43 46 49 51 51 53
53 52 50 54 50 43 45 39 38 37 37 31 30 29 28 27 28 29 30 30 29 30 32 31 29 29 30 32 32 34 36 37 39 38 38 38 38 40 40 41 42 43 45 47 48 50 53 57 60
47 53 52 54 48 44 42 39 30 35 35 31 29 31 29 28 29 30 30 29 28 29 28 27 28 29 30 31 34 36 37 37 38 37 37 39 40 41 42 43 44 45 46 49 53 56 60 64 69
49 44 46 52 49 42 37 34 32 32 36 33 29 29 29 29 30 31 32 31 30 30 28 28 28 29 31 33 35 36 38 38 38 38 39 40 41 42 42 42 44 48 52 56 59 63 66 68 70
38 55 55 46 48 40 38 33 27 36 34 32 29 29 29 31 32 33 33 32 33 31 28 28 29 31 33 35 36 38 38 38 38 39 39 40 41 41 43 47 51 55 57 61 65 67 69 71 73
42 47 44 49 46 37 31 32 33 30 32 31 28 28 28 30 32 33 34 34 33 32 31 31 31 32 34 36 37 38 38 37 38 39 40 41 42 45 49 53 56 60 63 66 68 71 73 74 76
49 41 42 44 41 32 31 29 28 29 29 29 29 26 29 29 29 31 33 32 32 32 32 33 34 34 35 36 36 37 37 37 37 38 41 44 47 51 54 57 61 64 67 69 72 74 75 76 79
44 47 42 39 35 30 27 28 30 27 27 28 27 30 32 31 30 29 30 31 32 34 35 34 34 34 34 35 36 36 36 37 39 41 45 49 52 55 59 62 66 68 70 72 74 75 76 80 84
43 42 39 39 35 28 21 25 27 24 25 26 27 29 29 30 28 30 30 32 34 34 34 34 32 31 33 34 34 35 37 39 42 47 50 53 57 60 64 67 70 72 73 74 75 77 81 84 87
38 37 39 34 33 31 27 28 25 22 22 22 26 28 29 29 29 30 33 34 33 33 33 31 31 32 33 34 35 37 40 43 48 51 54 58 62 66 69 71 73 74 74 74 77 80 83 86 89
Wind_Direction
260 261 256 249 252 252 244 240 238 236 238 244 250 251 255 254 252 246 257 258 266 274 278 284 289 297 294 287 282 283 281 275 269 267 261 260 257 257 260 262 262 262 260 261 268 270 275 281 294
259 263 257 251 247 244 241 239 237 234 236 239 244 248 248 249 249 251 253 252 260 268 277 283 288 292 291 281 283 287 283 286 280 276 268 256 253 257 260 263 268 270 273 272 274 274 278 284 289
255 258 260 252 247 240 222 241 239 238 232 235 240 243 243 245 243 246 248 251 259 265 273 273 278 288 288 283 277 283 283 291 292 283 273 257 253 257 261 267 272 276 282 284 277 277 281 283 285
249 251 257 253 243 242 239 242 241 235 233 236 239 244 247 245 244 244 246 245 254 263 268 267 277 284 286 285 286 288 287 289 288 294 277 267 262 262 266 270 272 278 284 287 284 278 277 280 282
244 248 252 252 245 241 241 238 232 234 237 241 244 243 251 249 245 243 241 244 251 258 261 259 277 284 287 282 284 289 287 283 284 282 285 278 269 266 268 270 273 277 281 285 284 278 276 277 279
241 243 247 249 247 239 240 238 232 229 234 241 243 251 254 252 246 242 239 238 257 252 249 254 273 284 287 285 283 287 288 283 277 279 282 282 281 278 274 274 276 278 280 280 280 280 279 279 281
241 239 243 245 244 244 238 239 233 234 235 238 242 246 259 256 250 243 238 242 257 246 238 258 271 277 287 287 284 286 284 284 282 279 278 279 281 282 285 286 286 283 282 280 280 281 282 283 284
240 239 239 244 245 243 241 238 237 232 236 236 237 244 259 264 250 242 241 244 254 237 238 258 267 275 286 286 284 285 285 282 283 283 283 281 280 282 284 287 287 286 283 282 282 280 282 283 285
240 237 235 242 244 245 245 238 239 235 236 236 237 247 259 246 232 238 238 238 245 232 236 258 262 268 278 292 286 283 285 287 288 287 286 284 282 281 281 284 285 283 282 282 280 279 278 279 282
239 238 235 238 243 243 247 239 234 233 236 238 236 242 246 236 223 230 229 236 236 234 236 256 261 265 279 293 291 291 289 290 293 294 291 290 289 287 283 282 282 282 281 280 277 277 278 281 282
236 237 234 235 240 243 245 242 234 230 236 236 234 240 246 226 222 223 225 226 229 232 239 249 257 264 273 284 286 289 294 296 296 296 293 292 290 290 287 284 282 281 281 281 281 282 283 282 282
240 237 234 231 237 243 243 241 237 230 236 239 237 241 236 226 226 224 225 227 231 237 242 246 253 262 272 281 284 286 292 297 300 295 290 288 288 288 286 284 284 283 281 282 283 282 281 283 285
237 235 234 231 235 242 241 240 236 227 235 236 232 236 231 231 231 230 231 233 236 242 241 246 254 262 270 277 281 288 293 299 298 294 290 288 289 291 293 292 288 286 285 284 284 284 287 288 289
238 233 233 230 233 238 240 236 237 223 231 236 233 237 236 237 231 230 233 238 242 244 245 251 257 264 269 271 277 282 285 289 290 287 286 287 290 294 297 297 296 292 287 286 287 287 288 290 292
231 231 228 229 231 237 238 231 234 225 231 233 235 235 241 239 229 227 232 240 245 247 248 254 258 263 270 275 275 279 276 278 280 282 285 287 291 295 296 297 297 294 291 291 289 290 292 292 294
230 229 226 226 228 233 236 222 228 227 236 230 238 236 240 241 228 229 236 242 244 243 247 254 260 265 271 276 273 271 277 278 280 284 288 292 295 297 298 298 297 296 295 296 297 298 299 298 298
227 226 224 225 228 230 233 221 229 233 235 231 233 235 238 236 232 229 237 242 243 245 250 259 266 267 273 281 280 281 276 278 281 286 291 293 296 299 300 300 301 301 302 301 299 297 297 297 296
225 225 225 222 230 230 234 225 227 236 235 232 230 235 235 231 228 228 237 240 245 248 258 267 267 269 279 284 281 282 283 282 284 289 292 295 300 301 301 300 301 301 301 300 300 300 299 297 296
222 223 224 224 227 229 231 227 227 234 236 233 231 234 234 232 230 231 236 241 248 254 260 269 273 275 281 280 278 281 283 285 286 289 291 296 297 298 299 301 301 301 300 300 299 297 296 297 297
216 222 221 223 228 226 229 229 230 232 235 230 228 232 232 234 233 234 238 243 250 255 262 270 276 280 280 276 279 281 283 286 290 292 294 295 295 297 299 300 301 301 300 298 297 298 298 298 298
213 216 217 219 228 224 227 228 231 230 235 227 228 231 234 237 239 237 241 245 249 257 266 273 278 277 274 273 276 281 284 287 290 294 297 298 302 303 302 300 300 299 299 300 300 300 300 301 300
212 211 214 220 222 224 223 226 229 228 234 229 229 229 236 240 239 238 240 246 254 265 274 274 271 270 271 277 283 284 286 289 292 298 301 303 303 300 301 301 300 300 299 299 302 303 304 305 305
209 213 215 221 219 223 223 229 230 231 232 233 232 230 236 238 236 238 244 252 262 273 273 272 273 274 276 281 283 286 288 290 295 298 299 299 299 299 298 298 298 299 302 303 305 305 305 305 303
205 212 212 216 220 220 224 229 223 229 229 230 232 230 235 237 238 241 249 257 266 272 271 271 275 276 279 281 282 284 288 294 298 299 298 296 296 296 298 300 302 303 304 304 305 305 304 302 301
194 207 212 210 215 214 220 222 212 226 232 232 232 232 236 239 242 246 254 261 265 269 270 271 273 276 278 280 283 287 292 295 297 296 296 297 298 300 302 303 304 304 304 305 304 303 302 302 302
189 191 197 201 211 213 217 221 222 227 237 235 232 234 239 245 245 249 255 260 263 265 265 268 273 275 279 282 286 290 293 294 294 294 296 297 299 302 304 304 305 306 305 304 304 303 303 302 303
196 200 200 203 209 211 216 222 225 224 230 234 232 233 240 245 248 251 256 261 264 267 270 272 274 278 280 284 288 291 293 293 294 295 296 298 301 303 305 306 306 305 305 305 305 304 304 304 305
195 199 195 201 207 209 212 220 229 224 229 230 232 237 242 248 249 253 257 263 266 268 271 274 275 279 283 286 289 292 293 294 294 296 299 302 303 305 307 307 307 306 306 306 305 304 306 306 305
184 196 196 201 207 205 210 223 234 227 228 231 236 242 244 248 252 255 260 264 268 272 275 276 280 283 284 288 290 292 292 294 297 300 302 304 306 309 309 308 307 307 306 306 306 307 307 307 308
194 197 196 201 209 214 219 224 229 228 231 236 239 242 246 250 254 260 264 268 272 274 275 279 281 285 288 290 291 293 296 298 300 303 305 308 310 310 309 309 308 307 307 307 308 308 308 310 311
Height
5823 5824 5826 5827 5831 5830 5830 5830 5830 5833 5835 5839 5842 5844 5845 5844 5843 5844 5843 5843 5843 5842 5842 5841 5840 5840 5839 5838 5838 5838 5838 5838 5838 5839 5838 5838 5838 5838 5839 5839 5840 5840 5839 5839 5839 5839 5838 5838 5836
5820 5820 5823 5824 5826 5826 5827 5825 5828 5827 5832 5835 5838 5840 5840 5838 5839 5839 5840 5840 5840 5840 5840 5840 5839 5838 5837 5836 5836 5836 5836 5836 5836 5836 5835 5835 5836 5836 5837 5837 5837 5837 5837 5837 5836 5836 5836 5834 5834
5815 5816 5819 5820 5821 5823 5821 5823 5823 5828 5829 5831 5834 5836 5836 5832 5834 5835 5836 5837 5837 5837 5838 5838 5837 5837 5836 5835 5834 5834 5834 5834 5834 5833 5833 5833 5833 5834 5835 5835 5835 5834 5834 5834 5833 5833 5832 5831 5830
5812 5813 5814 5816 5817 5819 5818 5819 5823 5825 5827 5828 5830 5832 5831 5831 5831 5831 5832 5833 5834 5835 5836 5836 5836 5835 5834 5833 5832 5832 5831 5831 5832 5831 5831 5831 5831 5831 5832 5832 5832 5831 5831 5830 5829 5829 5828 5827 5827
5806 5808 5809 5812 5813 5814 5815 5817 5819 5822 5824 5825 5827 5827 5826 5826 5827 5827 5828 5830 5831 5832 5833 5833 5833 5833 5832 5830 5830 5830 5829 5829 5829 5829 5829 5829 5828 5828 5829 5828 5828 5828 5827 5826 5825 5825 5824 5823 5822
5800 5803 5804 5807 5809 5808 5811 5813 5816 5817 5820 5822 5823 5825 5821 5822 5822 5824 5825 5826 5828 5829 5830 5831 5831 5830 5830 5829 5828 5827 5828 5827 5827 5827 5826 5827 5826 5825 5825 5824 5824 5823 5823 5823 5822 5821 5821 5820 5819
5794 5797 5799 5801 5804 5805 5806 5810 5812 5814 5817 5817 5820 5820 5816 5819 5819 5820 5822 5823 5825 5826 5827 5829 5828 5828 5827 5826 5826 5825 5825 5824 5824 5823 5823 5823 5823 5822 5822 5821 5820 5819 5818 5818 5817 5817 5816 5815 5815
5787 5791 5794 5796 5800 5801 5799 5806 5808 5810 5812 5816 5816 5815 5811 5818 5816 5817 5819 5821 5822 5823 5825 5825 5825 5826 5824 5823 5822 5822 5822 5821 5820 5820 5819 5819 5818 5818 5817 5816 5816 5815 5814 5813 5812 5812 5811 5810 5808
5780 5783 5787 5792 5795 5796 5794 5800 5804 5806 5808 5810 5812 5811 5811 5811 5812 5813 5815 5817 5819 5821 5821 5822 5822 5822 5822 5820 5820 5819 5818 5818 5817 5816 5815 5815 5814 5813 5813 5812 5811 5810 5809 5808 5807 5805 5803 5802 5800
5772 5776 5784 5788 5789 5788 5789 5795 5799 5802 5803 5806 5807 5806 5806 5807 5808 5810 5811 5814 5816 5817 5818 5819 5819 5819 5819 5818 5817 5816 5815 5814 5813 5812 5811 5810 5809 5808 5807 5806 5806 5804 5803 5801 5800 5798 5796 5794 5793
5765 5769 5779 5782 5782 5781 5784 5791 5794 5797 5799 5801 5801 5801 5802 5803 5804 5805 5808 5810 5811 5813 5814 5815 5816 5816 5815 5815 5814 5813 5812 5811 5810 5808 5807 5806 5805 5803 5802 5801 5799 5798 5796 5795 5793 5791 5789 5787 5786
5756 5764 5771 5774 5774 5775 5780 5784 5789 5792 5794 5795 5797 5797 5798 5799 5800 5802 5804 5806 5807 5809 5810 5812 5812 5812 5812 5811 5811 5810 5808 5808 5806 5804 5803 5802 5800 5799 5797 5796 5794 5792 5791 5789 5786 5784 5782 5780 5777
5746 5757 5763 5767 5768 5771 5774 5780 5784 5788 5789 5788 5791 5793 5794 5796 5797 5799 5801 5802 5804 5805 5807 5808 5808 5808 5808 5808 5808 5806 5805 5804 5802 5800 5799 5797 5796 5794 5792 5791 5789 5786 5784 5782 5779 5777 5774 5772 5769
5741 5749 5754 5758 5760 5763 5768 5776 5776 5785 5778 5783 5787 5790 5791 5792 5794 5795 5797 5799 5800 5801 5803 5804 5804 5804 5804 5804 5803 5802 5801 5800 5798 5796 5794 5793 5791 5789 5786 5784 5782 5780 5777 5774 5771 5769 5767 5765 5762
5730 5738 5744 5749 5753 5756 5763 5768 5774 5776 5773 5780 5783 5786 5787 5788 5789 5791 5793 5794 5796 5797 5798 5799 5800 5799 5799 5799 5798 5797 5796 5794 5792 5791 5790 5788 5786 5783 5780 5777 5774 5771 5769 5766 5765 5763 5761 5759 5757
5720 5728 5733 5743 5747 5751 5756 5767 5768 5766 5770 5775 5779 5782 5783 5784 5786 5788 5789 5790 5792 5793 5794 5795 5796 5795 5794 5794 5792 5791 5790 5788 5787 5786 5784 5782 5779 5776 5773 5770 5767 5764 5762 5760 5757 5755 5753 5750 5749
5708 5718 5727 5734 5740 5747 5748 5762 5761 5760 5767 5770 5774 5776 5778 5779 5781 5783 5784 5786 5787 5788 5790 5791 5791 5791 5790 5788 5787 5785 5783 5782 5781 5779 5778 5775 5772 5769 5765 5763 5760 5757 5755 5752 5750 5748 5746 5743 5740
5704 5713 5719 5728 5734 5740 5744 5753 5755 5756 5762 5765 5769 5771 5773 5774 5776 5778 5779 5782 5783 5784 5785 5786 5786 5786 5784 5782 5781 5780 5778 5777 5775 5773 5770 5767 5764 5761 5759 5756 5753 5750 5748 5745 5742 5739 5736 5733 5730
5699 5704 5713 5724 5729 5732 5739 5744 5749 5752 5755 5759 5763 5766 5768 5770 5771 5773 5775 5776 5778 5780 5781 5781 5781 5780 5778 5776 5775 5774 5772 5770 5768 5765 5763 5759 5756 5753 5751 5749 5746 5742 5739 5736 5733 5730 5727 5723 5718
5689 5697 5708 5717 5720 5728 5733 5736 5744 5746 5750 5755 5758 5760 5763 5765 5766 5768 5770 5772 5774 5775 5776 5776 5775 5774 5772 5771 5770 5768 5766 5765 5762 5759 5756 5752 5749 5746 5743 5740 5737 5734 5730 5727 5724 5720 5717 5713 5708
5679 5691 5704 5710 5712 5724 5726 5732 5738 5742 5743 5749 5752 5755 5758 5760 5761 5763 5765 5767 5769 5771 5771 5770 5769 5768 5766 5765 5764 5763 5761 5759 5756 5753 5750 5746 5743 5739 5735 5732 5729 5725 5722 5718 5714 5710 5706 5702 5697
5674 5687 5697 5702 5709 5718 5719 5728 5728 5733 5738 5743 5747 5750 5753 5755 5756 5758 5761 5763 5765 5766 5764 5763 5762 5762 5761 5760 5758 5757 5754 5751 5748 5745 5741 5738 5735 5731 5728 5724 5720 5717 5713 5709 5705 5700 5694 5688 5683
5674 5684 5692 5696 5705 5710 5716 5722 5728 5728 5733 5738 5741 5745 5748 5749 5752 5754 5756 5758 5760 5760 5759 5758 5757 5756 5755 5753 5752 5749 5747 5744 5741 5738 5734 5731 5727 5724 5720 5716 5713 5709 5704 5699 5693 5687 5680 5673 5666
5667 5677 5684 5691 5697 5706 5713 5718 5722 5724 5727 5732 5736 5739 5742 5744 5746 5749 5751 5754 5754 5754 5753 5752 5751 5750 5748 5747 5744 5742 5739 5736 5734 5730 5727 5723 5720 5717 5713 5708 5703 5699 5693 5686 5679 5672 5665 5658 5650
5658 5665 5676 5685 5693 5704 5706 5712 5717 5716 5722 5727 5731 5734 5737 5739 5741 5744 5746 5748 5748 5748 5747 5746 5744 5743 5741 5739 5737 5734 5731 5729 5726 5723 5718 5715 5712 5708 5703 5698 5693 5686 5680 5672 5665 5657 5650 5641 5633
5653 5663 5672 5679 5687 5698 5704 5707 5710 5715 5718 5722 5726 5729 5732 5734 5735 5738 5740 5741 5741 5741 5740 5739 5737 5735 5734 5732 5729 5727 5724 5721 5717 5713 5710 5706 5702 5697 5692 5687 5680 5673 5666 5658 5650 5642 5633 5624 5614
5648 5658 5667 5677 5687 5694 5700 5704 5709 5711 5714 5718 5722 5725 5727 5728 5730 5732 5733 5734 5735 5734 5733 5732 5730 5729 5727 5724 5722 5719 5716 5712 5709 5705 5701 5697 5693 5687 5681 5674 5667 5660 5651 5643 5634 5625 5616 5606 5596
5650 5659 5668 5677 5687 5691 5695 5700 5701 5708 5712 5716 5718 5720 5722 5724 5725 5726 5727 5727 5727 5726 5725 5725 5723 5721 5719 5716 5714 5710 5707 5704 5700 5696 5692 5687 5681 5675 5668 5661 5653 5644 5635 5626 5617 5608 5598 5588 5577
5644 5656 5667 5674 5681 5687 5695 5697 5699 5705 5708 5711 5713 5715 5717 5718 5720 5720 5720 5720 5719 5719 5718 5717 5715 5713 5711 5709 5705 5702 5699 5695 5691 5686 5681 5675 5669 5662 5654 5646 5637 5628 5618 5608 5599 5589 5579 5568 5556
5647 5655 5665 5672 5681 5686 5692 5693 5696 5700 5704 5707 5708 5709 5711 5712 5713 5714 5713 5713 5712 5712 5710 5709 5708 5705 5703 5700 5697 5694 5690 5686 5681 5676 5669 5662 5655 5647 5639 5630 5620 5610 5601 5592 5582 5572 5560 5548 5535